www.pogodaiklimat.ru

Погода и климат >> Архив погоды >> Канада >> Pelly Bay


ПОГОДА в Pelly Bay

  • Прогноз погоды в Pelly Bay
  • Монитор погоды в Pelly Bay
  • Климат города

АРХИВ ПОГОДЫ в Pelly Bay

Время (UTC), дата Ветер
(напр.,м/с)
 
Видим.   Явления Облачность Т
(С)
Тd
(С)
f
(%)
Тe
(С)
Тes
(С)
Комфортность P
(гПа)
Po
(гПа)
Тmin
(С)
Tmax
(С)
R
(мм)
R24
(мм)
S
(см)
15 9.07 СЗ 7 н/о н/о +2.9 -2 -2 1001.9 961.5
18 9.07 З 5 н/о н/о +7.5 +5 +5 1003.6 963.3 +2.2 +7.9
21 9.07 З 8 н/о н/о +9.6 +7 +7 1004.3 964.0
00 10.07 ЮЗ 7 н/о н/о +10.1 +8 +8 1004.3 964.0 +2.2 +11.0
03 10.07 ЮЗ 7 н/о н/о +12.0 +10 +10 1002.8 962.7
06 10.07 З 8 н/о н/о +11.5 +9 +9 1001.8 961.9 +2.2 +12.8 91
09 10.07 СЗ 8 н/о н/о +7.0 +3 +3 1003.1 963.0
12 10.07 С 4 н/о н/о +6.0 +4 +4 1005.4 965.2 +5.6 +12.8
15 10.07 СЗ 4 н/о н/о +7.1 +5 +5 1007.1 967.0
18 10.07 СЗ 4 н/о н/о +8.4 +6 +6 1008.4 968.3 +5.5 +11.4
21 10.07 СЗ 4 н/о н/о +9.9 +9 +9 1009.6 969.3
00 11.07 СЗ 3 н/о н/о +11.2 +10 +10 1010.2 969.9 +5.5 +11.4
03 11.07 штиль 0 н/о н/о +10.5 +11 +11 1010.7 970.4
06 11.07 ЮВ 1 н/о н/о +9.2 +10 +10 1010.6 970.3 +5.5 +11.5 81
09 11.07 ЮВ 2 н/о н/о +8.8 +8 +8 1010.4 970.1
12 11.07 В 6 н/о н/о +7.5 +5 +5 1008.8 968.6 +7.4 +11.5
15 11.07 В 7 н/о н/о +5.8 +2 +2 1008.0 967.7
18 11.07 ЮВ 9 н/о н/о +7.4 +3 +3 1007.2 967.0 +5.8 +9.3
21 11.07 В 8 н/о н/о +10.3 +8 +8 1006.4 966.3
00 12.07 В 8 н/о н/о +10.0 +7 +7 1005.4 965.3 +5.8 +10.7
03 12.07 В 6 н/о н/о +8.8 +6 +6 1004.7 964.5
06 12.07 В 6 н/о н/о +9.4 +7 +7 1003.6 963.5 +5.8 +11.3 181
09 12.07 В 5 н/о н/о +9.1 +7 +7 1002.1 962.2
12 12.07 ЮВ 4 н/о н/о +12.1 +11 +11 1000.5 960.7 +7.9 +11.3
15 12.07 ЮВ 5 н/о н/о +14.1 +13 +13 998.5 958.9
18 12.07 Ю 4 н/о н/о +20.0 +19 +19 997.5 958.1 +7.3 +20.2
21 12.07 С 6 н/о н/о +12.3 +10 +10 998.9 959.2
00 13.07 С 12 н/о н/о +4.3 -1 -1 1001.1 961.1 +3.9 +20.4
03 13.07 С 9 н/о н/о +4.2 -1 -1 1004.4 964.4
06 13.07 С 11 н/о н/о +3.2 -3 -3 1006.8 966.8 +3.0 +20.4 61
09 13.07 С 8 н/о н/о +3.3 -1 -1 1009.6 969.2
12 13.07 С 12 н/о н/о +1.0 -6 -6 1012.3 971.4 +1.0 +20.4
00 14.07 С 12 н/о н/о +3.9 -2 -2 1016.9 975.8
03 14.07 С 6 н/о н/о +3.0 -1 -1 976.4
06 14.07 С 7 н/о н/о +1.8 -3 -3 976.4
09 14.07 С 4 н/о н/о +1.8 -1 -1 976.7
12 14.07 С 2 н/о н/о +3.9 +3 +3 1018.0 977.0 +1.3
15 14.07 СЗ 3 н/о н/о +6.1 +4 +4 1017.8 976.9
18 14.07 СЗ 7 н/о н/о +7.0 +4 +4 1016.9 976.0 +7.9
21 14.07 С 7 н/о н/о +7.5 +4 +4 1016.8 975.9
00 15.07 С 7 н/о н/о +6.9 +3 +3 1016.4 975.6 +1.3 +8.7
03 15.07 С 5 н/о н/о +6.8 +4 +4 1016.0 975.3
06 15.07 З 3 н/о н/о +5.3 +4 +4 1015.4 974.7 +1.3 +8.7 221
09 15.07 СЗ 4 н/о н/о +4.8 +2 +2 1014.4 973.7
12 15.07 СЗ 5 н/о н/о +5.6 +3 +3 1013.9 973.3 +4.7 +8.7
15 15.07 С 6 н/о н/о +7.9 +5 +5 1013.4 972.9
18 15.07 С 8 н/о н/о +8.8 +6 +6 1013.6 973.0 +4.7 +9.6
21 15.07 С 7 н/о н/о +9.6 +7 +7 1014.0 973.4
00 16.07 С 5 н/о н/о +10.5 +9 +9 1013.7 973.2 +4.7 +11.3
03 16.07 С 5 н/о н/о +6.2 +3 +3 1014.2 973.6
06 16.07 С 11 н/о н/о +1.4 -5 -5 1014.2 973.5 +0.7 +11.3 61
09 16.07 С 11 н/о н/о +0.3 -7 -7 1014.1 973.3

 

Местоположение метеостанции Pelly Bay (Канада): широта 68.43 долгота -89.71 высота над уровнем моря 325 м.

В архиве по умолчанию представлена погода в Pelly Bay за последнюю неделю. Архивные данные за месяц целиком и за предыдущие месяцы, начиная с января 2011 года, Вы можете получить, выбрав интересующий диапазон дат из раскрывающегося списка и нажав кнопку "Ввод!".


*Определитесь, кто Вы:
робот инопланетянин человек

Внимание! Время в таблицах - всемирное. Для получения местного времени необходимо прибавить поправку, которая в Pelly Bay равна -6 ч.

Смотрите также архив погоды в соседних городах и на ближайших метеорологических станциях:

Погода в Kugaaruk climate (Канада) (12 км)
Погода в Shepherd Bay (Канада) (157 км)
Погода в Spence bay (Канада) (198 км)
Погода в Gjoa Haven Climate (Канада) (251 км)
Погода в Wager Bay (Канада) (284 км)
Погода в Hall Beach Climate (Канада) (345 км)
Погода в Back River MAPS (Канада) (392 км)
Погода в Hat Island (Канада) (421 км)
Погода в Rowley Island (Канада) (436 км)
Погода в Baker Lake Climate (Канада) (536 км)

Пояснения к столбцам:

Ветер - указаны скорость ветра в м/с - средняя за 10 мин, порывы в срок и между сроками (в фигурных скобках) и направление, откуда дует ветер: С - северный, СВ - северо-восточный, В - восточный, ЮВ - юго-восточный, Ю - южный, ЮЗ - юго-западный, З - западный, СЗ - северо-западный.
Видимость - горизонтальная дальность видимости в метрах или километрах. При видимости от 1 до 10 км при отсутствии осадков обычно наблюдается дымка, при ухудшении видимости до 1 км и менее - туман. В сухую погоду видимость может ухудшаться дымом, пылью или мглою.
Явления - указаны атмосферные явления, наблюдавшиеся в срок или в последний час перед сроком; фигурными скобками обозначены явления, наблюдавшиеся между сроками (за 1-3 часа до срока); квадратными скобками обозначены град или гололедные отложения с указанием их диаметра в мм.
Облачность - указаны через наклонную черту общая и нижняя облачность в баллах и высота нижней границы облаков в метрах; квадратными скобками обозначены формы облаков: Ci - перистые, Cs - перисто-слоистые, Cc - перисто-кучевые, Ac - высококучевые, As - высокослоистые, Sc - слоисто-кучевые, Ns - слоисто-дождевые, Cu - кучевые, Cb - кучево-дождевые. Подробнее классификацию облаков см. в Атласе облаков (PDF).
T - Температура воздуха - температура, измеренная на высоте 2 м над землей.
Td - Температура точки росы - температура, при понижении до которой содержащийся в воздухе водяной пар достигнет насыщения.
f - Относительная влажность воздуха - влажноcть воздуха, измеренная на высоте 2 м над землей.
Te - Эффективная температура - температура, которую ощущает одетый по сезону человек в тени. Характеристика душности погоды. При расчете учитывается влияние влажности воздуха и скорости ветра на теплоощущения человека.
Tes - Эффективная температура на солнце - температура, которую ощущает человек, с поправкой на солнечный нагрев. Характеристика знойности погоды. Зависит от высоты солнца над горизонтом, облачности и скорости ветра. Ночью, в пасмурную погоду, а также при ветре 12 м/с и более поправка равна нулю.
P - Атмосферное давление - приведенное к уровню моря атмосферное давление.
Po - Атмосферное давление - измеренное на уровне метеостанции атмосферное давление.
Tmin - Минимальная температура - минимум температуры воздуха на высоте 2 м над землей.
Tmax - Максимальная температура - максимум температуры воздуха на высоте 2 м над землей.
R - Количество осадков - Количество выпавших осадков за период времени, мм. При наведении курсора мыши на число - период времени, за который выпало указанное количество осадков.
R24 - Количество осадков - Количество выпавших осадков за 24 часа, мм.
S - Снежный покров - Высота снежного покрова, см. При наведении курсора мыши на число - состояние снежного покрова и степень покрытия местности в баллах.